Terminal Aerodrome Forecast
Issued by NWS Wilmington, NC

Home | Current Version | Previous Version | Text Only | Print | Product List | Glossary On
Versions: 1 2 3 4 5 6 7 8 9 10 11 12 13 14 15 16 17 18 19 20 21 22 23 24 25
000
FTUS42 KILM 272030 AAA
TAFFLO
TAF AMD
KFLO 272030Z 2721/2818 02012KT P6SM SCT010 BKN025 OVC035
     FM272130 36009KT 4SM -RA BR SCT006 BKN015 OVC035
     FM280100 34007KT P6SM BKN020 OVC040
     FM281100 33010KT P6SM SCT100 BKN250=

USA.gov is the U.S. government's official web portal to all federal, state and local government web resources and services.